STARLINK-32734 (62476 NORAD) Tracking and Keplerian Element Data

This shows tracking and keplerian element data for the satellite.

Feedback or suggestion? Click here.




ElementValue
Catalog62476
NameSTARLINK-32734
Epoch Orbit667
Epoch Day35.25001157
Epoch Year2025
RAAN109.8527
Inclination42.9995
Eccentricity0.000125
Argument of Perigee253.6309
Mean Anonmoly283.7644
Mean Motion15.40674665
Decay Rate0.00082129
L11 62476U 24254Q 25035.25001157 .00082129 00000+0 19539-2 0 9998
L22 62476 42.9995 109.8527 0001250 253.6309 283.7644 15.40674665 6670



Live tracking and technical data element details for STARLINK-32734 (NORAD 62476). STARLINK-32734 can be tracked NOW for your location showing map with azimuth and elevation plus other details from your city location.







IsCatalogInMostPopularTable: catalog: 62476, numindb: 14
Update: records affected: 1



GetName: 62476 STARLINK-32734

Hit Count: updated at: Sun, 18 May 2025 23:35:48 GMT